CPA165 VHHH-YBBN

Flight info

Callsign CPA165
Flight time N/A
Altitude 38000
Route DALOL V652 SABNO/N0488F390 A583 ZAM A461 AMN R340 GUTEV/N0481F410 DCT 10S133E DCT GTE DCT 18S140E 2046S14343E DCT EML Y409 BESBO Y177 SMOKA
Aircraft A359/H-SABDE2E3GHIJ1J2J3J4J5LM1OP2RVWXYZ/LB1D1G1

Departure

Time N/A
Airport Hong Kong International Airport (VHHH)

Arrival

Time 2026-05-07 01:48
Airport Brisbane International Airport (YBBN)
Time Latitude Longitude Altitude Speed Heading
2026-05-07 01:20 -25.92130 151.66704 35948 ft 479 kts 138°
2026-05-07 01:20 -25.94615 151.69169 35119 ft 479 kts 138°
2026-05-07 01:20 -25.97100 151.71641 34298 ft 480 kts 138°
2026-05-07 01:21 -25.99582 151.74115 33552 ft 478 kts 138°
2026-05-07 01:21 -26.02057 151.76584 32864 ft 476 kts 138°
2026-05-07 01:21 -26.04516 151.79038 32211 ft 472 kts 138°
2026-05-07 01:21 -26.06951 151.81470 31595 ft 468 kts 138°
2026-05-07 01:22 -26.09363 151.83880 31002 ft 464 kts 138°
2026-05-07 01:22 -26.11754 151.86269 30413 ft 460 kts 138°
2026-05-07 01:22 -26.14126 151.88641 29817 ft 456 kts 138°
2026-05-07 01:22 -26.16476 151.90993 29236 ft 452 kts 138°
2026-05-07 01:23 -26.18782 151.93302 28405 ft 440 kts 138°
2026-05-07 01:23 -26.19684 151.94205 28142 ft 433 kts 138°
2026-05-07 01:23 -26.21056 151.95580 27824 ft 421 kts 138°
2026-05-07 01:24 -26.23183 151.97711 27353 ft 402 kts 138°
2026-05-07 01:24 -26.25225 151.99759 26917 ft 391 kts 138°
2026-05-07 01:24 -26.27242 152.01783 26469 ft 388 kts 138°
2026-05-07 01:24 -26.29240 152.03788 26022 ft 385 kts 138°
2026-05-07 01:25 -26.30976 152.05532 25630 ft 383 kts 138°
2026-05-07 01:25 -26.31347 152.05904 25556 ft 382 kts 138°
2026-05-07 01:25 -26.31921 152.06481 25423 ft 382 kts 138°
2026-05-07 01:25 -26.33240 152.07807 25138 ft 380 kts 138°
2026-05-07 01:26 -26.35199 152.09775 24682 ft 377 kts 138°
2026-05-07 01:26 -26.37142 152.11730 24240 ft 375 kts 138°
2026-05-07 01:26 -26.39050 152.13649 23792 ft 372 kts 138°
2026-05-07 01:26 -26.40967 152.15579 23353 ft 370 kts 138°
2026-05-07 01:27 -26.42875 152.17500 22898 ft 367 kts 138°
2026-05-07 01:27 -26.44767 152.19406 22457 ft 365 kts 138°
2026-05-07 01:27 -26.46642 152.21296 22022 ft 362 kts 138°
2026-05-07 01:27 -26.48505 152.23175 21584 ft 359 kts 138°
2026-05-07 01:28 -26.50359 152.25045 21134 ft 357 kts 138°
2026-05-07 01:28 -26.52193 152.26896 20707 ft 354 kts 138°
2026-05-07 01:28 -26.53400 152.28115 20415 ft 353 kts 138°
2026-05-07 01:28 -26.55211 152.29945 19989 ft 350 kts 138°
2026-05-07 01:29 -26.57014 152.31766 19557 ft 348 kts 138°
2026-05-07 01:29 -26.58810 152.33582 19126 ft 346 kts 138°
2026-05-07 01:29 -26.60587 152.35379 18696 ft 344 kts 137°
2026-05-07 01:29 -26.62355 152.37169 18260 ft 342 kts 137°
2026-05-07 01:30 -26.64113 152.38950 17834 ft 340 kts 137°
2026-05-07 01:30 -26.65856 152.40740 17393 ft 339 kts 137°
2026-05-07 01:30 -26.67565 152.42509 16955 ft 337 kts 137°
2026-05-07 01:30 -26.69286 152.44288 16542 ft 336 kts 137°
2026-05-07 01:31 -26.70994 152.46054 16123 ft 334 kts 137°
2026-05-07 01:31 -26.72695 152.47812 15698 ft 332 kts 137°
2026-05-07 01:31 -26.74388 152.49562 15274 ft 330 kts 137°
2026-05-07 01:31 -26.76075 152.51306 14843 ft 329 kts 137°
2026-05-07 01:32 -26.77752 152.53040 14434 ft 327 kts 137°
2026-05-07 01:32 -26.79417 152.54763 14021 ft 325 kts 137°
2026-05-07 01:32 -26.81073 152.56476 13604 ft 323 kts 137°
2026-05-07 01:32 -26.82723 152.58184 13185 ft 321 kts 137°
2026-05-07 01:33 -26.84359 152.59878 12757 ft 319 kts 137°
2026-05-07 01:33 -26.85961 152.61539 12363 ft 317 kts 137°
2026-05-07 01:33 -26.87573 152.63210 11947 ft 315 kts 137°
2026-05-07 01:33 -26.89175 152.64874 11542 ft 312 kts 137°
2026-05-07 01:34 -26.90768 152.66516 11134 ft 310 kts 137°
2026-05-07 01:34 -26.92354 152.68150 10715 ft 308 kts 137°
2026-05-07 01:34 -26.93921 152.69766 10406 ft 302 kts 137°
2026-05-07 01:34 -26.95430 152.71325 10269 ft 288 kts 137°
2026-05-07 01:35 -26.96871 152.72815 10134 ft 277 kts 137°
2026-05-07 01:35 -26.98275 152.74253 9958 ft 270 kts 137°
2026-05-07 01:35 -26.99588 152.75760 9677 ft 275 kts 127°
2026-05-07 01:35 -27.00541 152.77645 9391 ft 279 kts 114°
2026-05-07 01:36 -27.01289 152.79622 9052 ft 279 kts 112°
2026-05-07 01:36 -27.02029 152.81653 8723 ft 277 kts 112°
2026-05-07 01:36 -27.02754 152.83629 8418 ft 276 kts 112°
2026-05-07 01:36 -27.03486 152.85612 8099 ft 274 kts 112°
2026-05-07 01:37 -27.04218 152.87587 7778 ft 273 kts 112°
2026-05-07 01:37 -27.04946 152.89548 7475 ft 272 kts 112°
2026-05-07 01:37 -27.05673 152.91507 7170 ft 271 kts 112°
2026-05-07 01:37 -27.06397 152.93455 6871 ft 269 kts 112°
2026-05-07 01:38 -27.07105 152.95394 6544 ft 269 kts 110°
2026-05-07 01:38 -27.07627 152.97397 6255 ft 267 kts 103°
2026-05-07 01:38 -27.08052 152.99424 5943 ft 266 kts 103°
2026-05-07 01:38 -27.08460 153.01422 5644 ft 265 kts 103°
2026-05-07 01:39 -27.08870 153.03428 5348 ft 264 kts 103°
2026-05-07 01:39 -27.09281 153.05428 5041 ft 262 kts 103°
2026-05-07 01:39 -27.09691 153.07420 4742 ft 261 kts 103°
2026-05-07 01:39 -27.10101 153.09410 4442 ft 260 kts 103°
2026-05-07 01:40 -27.10466 153.11398 4147 ft 259 kts 97°
2026-05-07 01:40 -27.10440 153.13388 3941 ft 250 kts 84°
2026-05-07 01:40 -27.10224 153.15285 3810 ft 239 kts 82°
2026-05-07 01:40 -27.09995 153.17119 3627 ft 237 kts 82°
2026-05-07 01:41 -27.09879 153.18959 3388 ft 236 kts 91°
2026-05-07 01:41 -27.10002 153.20785 3137 ft 234 kts 98°
2026-05-07 01:41 -27.10543 153.22494 2958 ft 234 kts 123°
2026-05-07 01:41 -27.11693 153.23769 2942 ft 234 kts 146°
2026-05-07 01:42 -27.13184 153.24396 2941 ft 234 kts 174°
2026-05-07 01:42 -27.14783 153.24142 2946 ft 233 kts 201°
2026-05-07 01:42 -27.16211 153.23390 2934 ft 219 kts 207°
2026-05-07 01:42 -27.17507 153.22623 2932 ft 202 kts 208°
2026-05-07 01:43 -27.18711 153.21911 2933 ft 191 kts 208°
2026-05-07 01:43 -27.19866 153.21229 2938 ft 189 kts 207°
2026-05-07 01:43 -27.21054 153.20550 2948 ft 189 kts 207°
2026-05-07 01:43 -27.22211 153.19892 2933 ft 189 kts 207°
2026-05-07 01:44 -27.23383 153.19222 2744 ft 188 kts 207°
2026-05-07 01:44 -27.24538 153.18560 2470 ft 183 kts 207°
2026-05-07 01:44 -27.25635 153.17933 2235 ft 170 kts 207°
2026-05-07 01:44 -27.26653 153.17351 2000 ft 158 kts 207°
2026-05-07 01:45 -27.27600 153.16810 1785 ft 147 kts 207°
2026-05-07 01:45 -27.28481 153.16306 1608 ft 137 kts 207°
2026-05-07 01:45 -27.29310 153.15832 1426 ft 131 kts 207°
2026-05-07 01:45 -27.30123 153.15367 1258 ft 131 kts 207°
2026-05-07 01:46 -27.30936 153.14902 1080 ft 132 kts 207°
2026-05-07 01:46 -27.31834 153.14387 944 ft 154 kts 207°
2026-05-07 01:46 -27.32797 153.13837 731 ft 156 kts 207°
2026-05-07 01:46 -27.33731 153.13300 501 ft 146 kts 207°
2026-05-07 01:47 -27.34608 153.12796 303 ft 137 kts 207°
2026-05-07 01:47 -27.35448 153.12319 121 ft 135 kts 207°
2026-05-07 01:47 -27.36275 153.11843 28 ft 128 kts 207°
2026-05-07 01:47 -27.36864 153.11507 30 ft 58 kts 206°
2026-05-07 01:48 -27.37155 153.11347 31 ft 37 kts 198°
2026-05-07 01:48 -27.37376 153.11331 28 ft 24 kts 178°
2026-05-07 01:48 -27.37408 153.11333 28 ft 3 kts 177°
2026-05-07 01:48 -27.37484 153.11349 27 ft 12 kts 159°
2026-05-07 01:49 -27.37526 153.11429 28 ft 12 kts 88°
2026-05-07 01:49 -27.37470 153.11485 29 ft 13 kts 27°
2026-05-07 01:49 -27.37380 153.11536 26 ft 16 kts 27°
2026-05-07 01:49 -27.37321 153.11609 26 ft 10 kts 92°
2026-05-07 01:50 -27.37357 153.11691 29 ft 13 kts 116°
2026-05-07 01:50 -27.37408 153.11793 26 ft 17 kts 117°
2026-05-07 01:50 -27.37463 153.11918 27 ft 20 kts 117°
2026-05-07 01:50 -27.37528 153.12064 27 ft 23 kts 117°
2026-05-07 01:51 -27.37604 153.12229 29 ft 25 kts 118°
2026-05-07 01:51 -27.37686 153.12404 26 ft 26 kts 117°
2026-05-07 01:51 -27.37772 153.12591 26 ft 28 kts 117°
2026-05-07 01:51 -27.37861 153.12787 26 ft 26 kts 117°
2026-05-07 01:52 -27.37908 153.12896 28 ft 14 kts 116°
2026-05-07 01:52 -27.37978 153.12908 26 ft 12 kts 202°
2026-05-07 01:52 -27.38065 153.12860 29 ft 17 kts 207°
2026-05-07 01:52 -27.38191 153.12787 30 ft 22 kts 207°
2026-05-07 01:53 -27.38335 153.12705 28 ft 25 kts 206°
2026-05-07 01:53 -27.38496 153.12613 28 ft 27 kts 207°
2026-05-07 01:53 -27.38650 153.12526 29 ft 26 kts 207°
2026-05-07 01:53 -27.38816 153.12430 28 ft 28 kts 207°
2026-05-07 01:54 -27.38961 153.12347 27 ft 24 kts 207°
2026-05-07 01:54 -27.39118 153.12258 28 ft 26 kts 207°
2026-05-07 01:54 -27.39288 153.12160 27 ft 29 kts 207°
2026-05-07 01:54 -27.39472 153.12055 30 ft 31 kts 206°
2026-05-07 01:55 -27.39669 153.11943 29 ft 32 kts 206°
2026-05-07 01:55 -27.39794 153.11872 28 ft 17 kts 207°
2026-05-07 01:55 -27.39910 153.11805 29 ft 20 kts 207°
2026-05-07 01:55 -27.40046 153.11730 28 ft 23 kts 206°
2026-05-07 01:56 -27.40164 153.11663 27 ft 0 kts 206°
2026-05-07 01:56 -27.40188 153.11649 27 ft 9 kts 207°
2026-05-07 01:56 -27.40256 153.11608 27 ft 10 kts 215°
2026-05-07 01:56 -27.40259 153.11536 30 ft 12 kts 296°
2026-05-07 01:57 -27.40214 153.11442 25 ft 15 kts 298°
2026-05-07 01:57 -27.40195 153.11349 28 ft 11 kts 254°
2026-05-07 01:57 -27.40259 153.11288 27 ft 13 kts 210°
2026-05-07 01:57 -27.40293 153.11266 27 ft 0 kts 210°